Vero Beach, FL

7:02 AM EDT on March 27, 2017 (GMT -0400)
Vero Beach Municipal

Weather History for KVRB - October, 2014

Change the Weather History Date:

Sunday, October 5, 2014

  Actual Average Record
Temperature  
Mean Temperature 70 °F 79 °F  
Max Temperature 79 °F 86 °F 93 °F (1986)
Min Temperature 60 °F 72 °F 60 °F (1987)
Degree Days  
Heating Degree Days 0 0  
Month to date heating degree days 0 0  
Since 1 July heating degree days 0 0  
Cooling Degree Days 5 14  
Month to date cooling degree days 60 70  
Year to date cooling degree days 2845 2837  
Growing Degree Days 19 (Base 50)    
Moisture  
Dew Point 58 °F    
Average Humidity 69    
Maximum Humidity 90    
Minimum Humidity 47    
Precipitation  
Precipitation 0.00 in 0.19 in 1.50 in (1991)
Month to date precipitation 1.59 1.02  
Year to date precipitation 45.64 42.51  
Sea Level Pressure  
Sea Level Pressure 29.96 in    
Wind  
Wind Speed 8 mph (NNW)    
Max Wind Speed 15 mph    
Max Gust Speed 21 mph    
Visibility 10 miles    
Events      
T = Trace of Precipitation, MM = Missing Value Source: NWS Daily Summary

Daily Weather History Graph

Daily Weather History Graph

Search for Another Location

Airport or City:

Trip Planner

Search our weather history database for the weather conditions in past years. The results will help you decide how hot, cold, wet, or windy it might be!

Date:

Astronomy

Oct. 05, 2014 Rise Set
Actual Time 7:16 AM EDT 7:03 PM EDT
Civil Twilight 6:53 AM EDT 7:26 PM EDT
Nautical Twilight 6:25 AM EDT 7:53 PM EDT
Astronomical Twilight 5:58 AM EDT 8:20 PM EDT
Moon 5:06 PM EDT (10/5) 4:07 AM EDT (10/5)
Length of Visible Light 12h 33m
Length of Day
11h 46m
Waxing Gibbous, 89% of the Moon is Illuminated
Oct 5
Waxing Gibbous
Oct 8
Full
Oct 15
Last Quarter
Oct 23
New
Oct 30
First Quarter

Hourly Weather History & Observations

Time (EDT) Temp. Dew Point Humidity Pressure Visibility Wind Dir Wind Speed Gust Speed Precip Events Conditions
12:53 AM 66.0 °F 61.0 °F 84% 29.92 in 10.0 mi WNW 8.1 mph - N/A   Clear
1:53 AM 64.0 °F 48.9 °F 58% 29.92 in 10.0 mi WNW 6.9 mph - N/A   Clear
2:53 AM 64.0 °F 60.1 °F 87% 29.91 in 10.0 mi WNW 6.9 mph - N/A   Clear
3:53 AM 63.0 °F 59.0 °F 87% 29.90 in 10.0 mi WNW 5.8 mph - N/A   Clear
4:53 AM 62.1 °F 57.9 °F 86% 29.91 in 10.0 mi NW 6.9 mph - N/A   Clear
5:53 AM 61.0 °F 57.9 °F 90% 29.91 in 10.0 mi NW 9.2 mph - N/A   Clear
6:53 AM 60.1 °F 57.0 °F 90% 29.93 in 10.0 mi NW 9.2 mph - N/A   Clear
7:53 AM 60.1 °F 55.9 °F 86% 29.95 in 10.0 mi NW 9.2 mph - N/A   Clear
8:53 AM 63.0 °F 57.0 °F 81% 29.96 in 10.0 mi NW 6.9 mph - N/A   Clear
9:53 AM 70.0 °F 60.1 °F 71% 29.98 in 10.0 mi NNW 8.1 mph - N/A   Clear
10:53 AM 75.0 °F 62.1 °F 64% 29.99 in 10.0 mi NNW 12.7 mph - N/A   Clear
11:53 AM 75.9 °F 60.1 °F 58% 29.99 in 10.0 mi North 11.5 mph - N/A   Clear
12:53 PM 77.0 °F 59.0 °F 54% 29.98 in 10.0 mi North 11.5 mph - N/A   Partly Cloudy
1:53 PM 78.1 °F 60.1 °F 54% 29.97 in 10.0 mi NNE 10.4 mph - N/A   Scattered Clouds
2:53 PM 78.1 °F 57.9 °F 50% 29.95 in 10.0 mi NNE 12.7 mph 18.4 mph N/A   Clear
3:53 PM 77.0 °F 55.9 °F 48% 29.95 in 10.0 mi NNE 11.5 mph - N/A   Clear
4:53 PM 75.9 °F 55.9 °F 50% 29.95 in 10.0 mi NNE 9.2 mph - N/A   Clear
5:53 PM 75.0 °F 57.0 °F 53% 29.96 in 10.0 mi NNE 9.2 mph - N/A   Clear
6:53 PM 72.0 °F 57.0 °F 59% 29.97 in 10.0 mi North 6.9 mph - N/A   Clear
7:53 PM 69.1 °F 57.9 °F 68% 29.99 in 10.0 mi North 5.8 mph - N/A   Clear
8:53 PM 66.0 °F 59.0 °F 78% 30.01 in 10.0 mi North 5.8 mph - N/A   Clear
9:53 PM 66.0 °F 57.9 °F 75% 30.02 in 10.0 mi North 5.8 mph - N/A   Clear
10:53 PM 63.0 °F 59.0 °F 87% 30.02 in 10.0 mi North 5.8 mph - N/A   Clear
11:53 PM 63.0 °F 59.0 °F 87% 30.04 in 10.0 mi North 3.5 mph - N/A   Clear